Location: Taipo
(41.0000°S, 175.9500°E)
Time: 11:05:07
(UTC+00:00)

Cosmos 1356 Rocket - Pass Details

Date: 18 April 2024
Orbit: 531 x 579 km, 81.2° (Epoch: 24 May)

Event Time Altitude Azimuth Distance (km) Brightness Sun altitude
Rises 16:46:45 0° 188° (S) 2,825 6.9 -24.0°
Reaches altitude 10° 16:49:00 10° 186° (S) 1,911 6.1 -23.6°
Maximum altitude 16:53:13 74° 101° (E) 601 3.5 -22.8°
Drops below altitude 10° 16:57:19 10° 14° (NNE) 1,852 6.1 -22.0°
Sets 16:59:27 0° 12° (NNE) 2,730 7.0 -21.6°
